RH
39 37 37 40 43 46 48 47 42 35 20 13 10 9 12 14 14 13 10 7 6 6 6 5 4 4 5 4 4 4 5 6 6 7 8 8 8 6 5 5 7 9 10
48 44 45 44 40 36 32 30 28 25 18 11 9 10 13 14 14 13 10 7 7 8 6 5 5 5 5 5 5 5 5 6 8 10 10 8 7 6 5 5 8 9 10
54 52 46 45 47 45 38 29 24 21 17 12 10 11 14 15 14 12 9 8 9 8 8 7 7 7 7 6 6 6 6 7 11 11 10 9 7 6 5 5 5 7 11
58 58 58 52 50 54 54 49 32 20 16 14 12 13 16 16 14 11 8 9 10 9 9 9 8 8 7 7 8 8 9 12 12 13 13 11 10 8 5 4 5 5 8
62 63 64 64 60 54 53 46 43 33 18 14 14 15 17 16 13 10 10 10 11 10 9 8 8 9 9 10 10 11 14 15 16 16 15 13 12 11 9 7 6 6 6
65 68 70 68 70 66 61 54 37 33 22 15 15 19 17 14 12 11 12 12 10 9 9 9 10 11 11 12 15 19 19 19 18 16 14 13 12 10 9 8 8 6 7
74 77 74 71 72 73 64 53 39 33 22 16 18 19 16 13 12 13 12 10 10 10 11 12 12 14 16 19 22 22 21 18 16 14 13 11 10 9 8 7 7 7 7
82 82 78 74 81 81 68 49 36 31 22 18 20 17 14 13 14 13 11 11 12 12 14 16 20 24 25 25 24 22 19 18 16 13 12 11 10 9 8 8 7 7 7
91 90 86 85 91 85 63 47 33 27 20 21 20 15 14 13 12 12 13 14 16 18 22 28 30 29 27 26 23 21 18 16 13 11 10 9 8 8 7 6 6 6 6
93 93 86 92 94 74 59 42 29 22 21 22 16 15 14 13 12 13 16 19 23 27 31 33 32 30 27 25 22 18 16 14 12 10 8 8 8 7 5 5 6 9 9
97 90 89 97 89 70 50 34 25 22 24 18 15 14 14 15 16 19 23 31 36 38 37 35 32 29 24 21 17 10 7 7 7 8 7 8 7 6 6 10 12 13 12
93 95 96 96 85 56 38 27 23 24 20 16 15 16 17 18 22 27 34 40 43 41 37 34 28 24 20 13 8 7 7 8 8 8 7 6 6 10 17 20 23 22 17
97 95 95 90 66 42 29 24 24 21 17 16 17 19 22 27 35 43 47 48 45 38 32 26 24 19 11 9 9 9 9 8 7 5 6 8 11 18 33 38 30 26 22
91 94 94 71 47 31 25 24 21 18 18 19 22 27 35 44 51 53 51 47 39 33 27 24 17 10 10 9 9 8 7 6 5 6 8 12 16 23 41 62 41 28 28
94 85 61 45 33 26 24 22 18 20 22 28 33 41 52 57 56 52 46 39 32 28 19 11 10 10 9 9 8 7 5 5 9 14 18 24 38 47 55 84 71 33 32
91 71 47 34 27 24 22 19 22 27 33 40 49 58 62 59 54 47 40 36 28 15 11 11 10 10 9 8 6 6 8 8 9 14 20 20 37 64 71 90 96 60 32
72 46 34 28 25 23 20 23 29 38 48 59 64 64 61 54 47 40 36 23 12 13 12 11 10 9 8 6 5 6 7 11 15 19 29 36 36 40 47 74 93 98 50
51 34 29 25 23 22 26 35 47 58 68 69 66 61 53 46 41 32 17 13 14 13 11 10 8 6 5 5 6 8 13 17 20 24 27 31 35 38 43 52 61 91 100
34 29 25 24 25 31 43 56 65 72 71 67 60 52 44 40 29 16 15 16 13 11 9 6 5 5 6 12 13 12 10 11 15 21 29 32 33 25 18 22 45 60 88
28 26 25 30 38 50 60 69 73 70 67 60 51 44 39 27 18 19 18 14 11 8 6 5 6 8 13 12 11 16 27 46 47 48 47 43 47 53 50 32 20 28 57
27 27 36 43 54 66 74 74 72 67 58 50 48 38 27 22 22 18 14 10 7 5 5 8 12 11 10 15 44 56 56 54 52 54 48 42 38 39 43 50 50 32 23
32 42 52 65 73 77 76 74 67 58 50 47 39 28 26 23 18 14 8 6 5 6 11 12 10 10 30 54 63 64 58 59 54 44 36 26 26 26 23 29 47 55 45
46 61 73 79 80 77 73 64 57 49 43 37 30 29 23 20 13 7 5 5 8 12 12 10 18 41 54 64 63 62 66 58 44 57 40 38 54 46 58 46 41 48 58
70 82 84 84 81 72 62 55 47 42 34 33 30 24 20 11 6 4 4 5 9 11 11 23 48 58 57 51 61 64 51 39 51 68 53 69 91 94 100 100 89 61 55
88 86 86 80 69 64 52 44 42 36 36 31 26 18 10 5 4 5 5 8 11 12 28 50 53 43 44 73 62 36 37 44 56 82 72 71 82 95 100 100 100 95 63
90 87 71 68 60 49 45 43 40 38 31 28 19 8 4 4 4 6 10 11 11 28 42 34 33 53 70 72 52 29 34 50 60 72 85 81 87 99 96 98 90 92 80
Wind_Speed
19 21 23 24 26 27 28 29 30 30 28 26 25 25 26 28 29 31 30 30 27 26 27 28 29 31 33 33 33 34 35 36 36 39 40 42 43 41 38 35 33 33 34
19 21 23 25 27 28 29 30 31 30 29 28 27 27 28 30 31 31 31 30 28 28 29 30 32 35 36 36 37 38 40 41 43 44 45 44 43 42 43 41 38 38 37
22 23 25 26 27 29 30 31 31 31 30 30 30 30 30 31 33 32 33 30 29 30 32 33 36 38 40 40 41 43 45 46 47 47 47 46 45 44 45 44 44 43 43
24 25 27 28 29 30 32 32 32 32 32 32 32 31 31 33 34 35 33 30 31 33 36 38 40 41 43 45 47 48 50 51 51 51 51 50 50 50 49 49 49 47 48
27 27 28 30 31 32 33 34 34 34 34 33 33 32 33 34 36 36 33 33 35 38 40 42 44 46 49 52 54 55 55 56 57 57 57 56 55 57 55 54 53 55 53
30 30 31 33 34 35 35 36 36 36 36 35 33 33 34 36 38 36 35 37 40 42 44 47 50 53 55 57 59 60 61 62 62 61 61 62 62 60 61 61 60 58 59
32 32 34 37 38 39 38 38 38 37 37 36 35 36 36 39 38 38 39 42 44 48 51 54 56 58 60 62 64 64 65 66 67 67 68 68 68 68 66 66 66 65 64
36 37 38 40 40 41 40 39 39 39 39 36 37 37 40 39 39 41 44 47 51 54 57 59 61 62 64 66 67 68 70 71 71 72 73 74 75 75 75 74 72 71 72
39 39 40 42 43 38 39 40 40 40 38 38 38 41 41 41 42 45 49 53 56 58 61 63 64 66 67 69 70 72 74 74 75 75 76 77 78 78 80 81 80 81 80
43 41 44 45 43 36 40 41 41 40 39 39 42 43 43 45 49 52 56 58 61 64 66 67 69 70 71 73 74 76 77 79 80 81 82 83 83 82 81 80 79 78 78
44 47 49 41 39 38 42 42 41 40 40 42 44 45 47 51 55 57 59 62 65 67 68 70 71 72 73 75 77 78 81 84 84 85 85 83 81 78 75 71 66 59 56
49 46 41 36 36 41 42 42 41 41 43 44 46 49 53 57 60 63 65 67 67 66 69 72 74 75 77 78 80 82 84 85 85 84 83 79 75 71 65 59 52 48 46
46 37 35 35 39 42 42 41 42 44 45 47 51 55 59 62 65 67 69 70 69 69 71 73 77 79 81 82 83 85 85 84 82 80 76 73 69 66 61 56 51 47 45
36 37 36 39 42 42 41 42 44 45 47 52 56 59 63 66 68 70 71 72 71 72 72 75 79 83 86 85 84 84 82 81 79 76 73 69 65 63 60 54 50 47 44
35 34 39 41 41 41 42 44 45 48 52 56 59 63 66 68 69 71 73 76 77 77 75 77 82 84 87 87 85 83 80 77 75 73 70 67 63 60 58 53 50 48 44
39 40 41 41 41 42 44 45 48 52 56 60 63 66 68 69 70 73 76 78 81 83 81 83 84 84 84 85 83 81 78 75 73 71 69 67 63 60 57 55 52 49 46
43 40 40 41 42 43 45 49 53 56 60 63 66 67 69 70 73 76 78 81 84 88 90 84 84 82 81 81 79 78 76 72 70 68 66 66 64 62 60 59 54 51 49
43 41 40 42 43 46 49 53 56 59 62 65 66 68 70 73 75 78 81 84 88 90 90 87 82 81 79 79 77 74 73 73 74 73 73 72 71 69 65 62 59 54 52
39 40 42 43 45 49 52 55 58 62 65 66 67 70 73 75 77 80 85 87 88 86 86 86 81 79 77 75 75 74 71 67 61 58 57 57 57 58 62 65 63 59 55
40 40 42 46 48 52 55 58 62 64 65 67 71 73 75 78 82 86 88 87 85 83 82 80 79 76 75 74 71 63 57 57 56 58 59 58 57 57 57 58 60 62 60
39 41 45 49 52 55 58 61 63 64 67 71 72 75 79 83 86 88 87 83 81 79 78 77 76 75 69 61 58 58 59 58 54 54 54 55 57 60 60 58 57 58 60
41 44 48 51 54 58 59 61 63 67 69 72 75 79 82 85 87 85 82 80 78 76 75 75 72 65 56 58 58 58 56 52 48 50 52 49 49 50 54 57 58 57 56
44 47 51 54 57 58 60 63 67 69 72 75 78 82 86 86 83 80 78 76 73 74 74 70 60 57 59 59 56 51 49 48 46 40 42 35 32 30 39 41 45 55 57
47 50 53 55 56 59 63 66 68 71 74 78 82 85 84 81 79 77 74 72 71 70 64 58 58 60 58 51 46 45 48 44 34 32 31 23 21 19 21 23 29 40 51
49 51 52 55 59 62 65 69 70 74 79 82 83 83 81 77 76 75 74 71 68 61 55 57 59 54 45 39 42 43 39 36 31 27 28 22 20 17 17 19 24 30 38
48 51 55 58 60 65 68 69 73 77 80 83 84 80 77 76 73 71 70 68 60 54 57 55 45 40 35 32 39 35 32 31 29 24 24 22 17 17 14 17 21 25 29
Wind_Direction
285 287 289 291 293 295 298 300 301 303 304 302 302 303 305 309 312 312 310 310 301 296 297 299 300 304 305 304 303 301 300 302 303 302 304 304 303 300 297 291 287 279 276
295 294 295 295 296 298 299 301 303 303 304 302 302 303 305 308 310 309 308 306 299 295 297 299 300 301 302 301 299 297 296 297 298 300 301 300 297 295 294 289 281 279 271
294 299 301 300 300 301 303 305 306 305 303 302 302 303 305 308 308 307 306 301 297 298 298 299 300 300 299 297 295 294 293 294 296 297 297 296 292 288 287 286 283 276 273
288 296 300 303 302 303 305 307 308 306 303 302 302 303 306 307 306 304 304 298 297 298 299 299 298 297 296 294 294 293 294 295 295 296 295 292 289 286 282 281 279 274 269
285 292 298 301 303 304 307 308 308 307 305 303 304 305 305 304 303 302 300 298 297 299 299 298 297 296 296 296 296 296 296 296 295 294 292 289 286 284 281 277 277 275 268
282 288 294 298 300 302 305 308 308 306 304 304 303 303 302 302 302 300 299 299 299 299 298 297 297 297 296 296 297 297 296 294 293 292 290 287 285 281 278 276 274 272 270
279 285 291 293 298 299 302 307 307 305 304 303 301 301 300 301 301 301 301 300 300 300 300 298 297 296 296 296 296 295 295 294 293 291 289 288 285 282 279 276 272 269 267
275 280 285 291 293 296 298 305 305 304 302 301 300 299 299 300 301 300 300 301 300 300 299 298 297 297 296 296 295 295 293 292 292 290 289 288 286 284 280 277 273 269 264
271 276 284 288 289 293 299 304 303 302 301 299 298 299 299 300 300 300 302 302 301 300 299 299 299 298 297 296 295 295 294 294 294 292 290 287 283 281 277 274 270 266 262
272 275 283 285 288 297 301 303 302 301 300 297 298 299 300 301 302 303 303 302 301 300 300 300 299 299 299 298 298 298 296 295 292 290 289 286 283 280 276 272 268 268 266
269 276 282 281 288 299 301 302 301 298 298 298 299 300 301 301 303 304 304 304 304 303 303 301 299 299 300 299 299 299 297 294 292 290 288 285 282 280 279 279 280 278 274
268 275 279 287 296 300 301 301 299 298 299 300 300 301 302 303 305 304 303 303 303 303 303 303 303 302 302 301 300 299 296 293 290 289 286 283 282 282 282 282 280 278 270
263 281 291 297 300 300 300 299 298 299 300 300 301 302 305 306 306 305 304 303 303 303 304 305 304 303 303 302 300 297 294 291 289 286 284 282 281 280 280 279 278 277 272
291 290 294 298 299 298 297 297 299 300 300 301 303 306 307 306 306 305 305 304 304 305 304 304 305 305 304 302 298 295 292 289 287 285 284 283 281 278 276 276 273 271 271
298 297 297 296 296 296 297 298 300 300 301 304 306 307 307 307 306 306 307 307 306 303 304 305 306 305 302 299 295 293 289 287 286 285 284 283 280 277 274 272 269 266 265
297 298 297 294 294 296 298 299 299 302 305 307 307 307 307 307 308 309 308 308 307 307 308 308 307 305 300 296 294 292 291 289 286 284 283 280 276 273 271 268 266 263 258
292 295 292 293 295 297 298 299 301 305 307 307 307 307 307 309 309 309 308 308 309 310 310 311 305 301 297 294 293 293 292 291 288 283 279 277 275 273 269 265 263 259 256
291 290 291 294 297 297 298 302 305 307 307 308 307 308 309 309 308 309 309 310 311 310 307 307 303 299 297 295 295 294 292 289 286 283 280 276 273 270 267 264 260 257 253
286 288 291 294 295 298 302 304 306 307 307 307 307 308 309 308 309 310 311 312 311 307 304 302 301 300 300 299 297 295 293 290 288 285 281 278 275 270 264 260 258 254 251
286 290 292 293 298 302 304 306 307 306 307 307 309 309 309 310 311 311 312 311 309 305 303 303 304 304 303 300 298 297 295 293 289 285 282 278 274 269 265 260 254 251 246
288 290 294 298 301 303 305 306 306 306 308 309 310 310 311 312 312 312 312 309 307 306 306 305 306 305 303 301 299 298 297 294 292 289 285 281 275 269 264 258 253 250 246
289 294 297 300 303 304 305 305 306 309 309 310 311 311 312 311 313 312 309 309 309 307 308 308 307 306 304 302 300 299 299 297 297 295 293 289 277 270 264 256 250 246 244
293 296 299 302 303 304 305 307 309 309 310 311 312 312 312 313 313 312 311 311 310 310 309 308 308 306 306 304 302 301 301 302 303 301 300 294 285 275 265 263 251 243 240
295 298 301 301 303 305 308 308 309 310 310 311 312 313 315 315 313 312 311 311 312 311 310 310 309 308 307 305 304 306 304 305 302 303 300 300 300 299 285 272 255 240 237
298 299 301 302 306 307 308 309 310 311 311 313 314 317 316 314 313 313 313 314 314 312 311 310 310 308 308 308 313 312 309 306 301 301 299 299 294 296 289 274 261 249 234
298 300 303 306 306 307 309 311 310 311 312 315 319 318 316 315 315 314 314 315 315 314 313 312 310 307 305 308 323 324 317 311 304 304 302 301 300 292 282 271 263 254 243